Location: Newark
(44.3681°N, 100.3364°W)
Time: 13:36:39
(UTC+00:00)

S-56A Canister/Altair - Pass Details

Date: 06 March 2020
Orbit: 634 x 2498 km, 38.9° (Epoch: 04 April)

Event Time Altitude Azimuth Distance (km) Brightness Sun altitude
Rises 20:21:24 0° 284° (WNW) 5,874 12.2 36.5°
Reaches altitude 10° 20:25:43 10° 275° (W) 5,018 12.1 36.2°
Maximum altitude 20:37:34 31° 221° (SW) 3,713 13.6 35.1°
Drops below altitude 10° 20:49:11 10° 167° (SSE) 4,878 12.3 33.9°
Sets 20:53:21 0° 158° (SSE) 5,688 12.3 33.5°
